Time,TemperatureF,DewpointF,PressureIn,WindDirection,WindDirectionDegrees,WindSpeedMPH,WindSpeedGustMPH,Humidity,HourlyPrecipIn,Conditions,Clouds,dailyrainin,SoftwareType,DateUTC
2013-07-06 00:02:00,70.0,-99.9,30.04,East,90,0.0,0.0,-999,0.00,,,0.00,,2013-07-06 05:02:00,
2013-07-06 00:12:00,70.0,-99.9,30.04,East,90,0.0,0.0,-999,0.00,,,0.00,,2013-07-06 05:12:00,
2013-07-06 00:22:00,70.0,-99.9,30.04,East,90,0.0,0.0,-999,0.00,,,0.00,,2013-07-06 05:22:00,
2013-07-06 00:34:00,69.0,-99.9,30.04,East,90,0.0,0.0,-999,0.00,,,0.00,,2013-07-06 05:34:00,
2013-07-06 00:43:00,69.0,-99.9,30.03,East,90,0.0,0.0,-999,0.00,,,0.00,,2013-07-06 05:43:00,
2013-07-06 00:53:00,69.0,-99.9,30.03,East,90,0.0,0.0,-999,0.00,,,0.00,,2013-07-06 05:53:00,
2013-07-06 01:02:00,69.0,-99.9,30.03,East,90,0.0,0.0,-999,0.00,,,0.00,,2013-07-06 06:02:00,
2013-07-06 01:12:00,68.0,-99.9,30.03,East,90,0.0,0.0,-999,0.00,,,0.00,,2013-07-06 06:12:00,
2013-07-06 01:22:00,68.0,-99.9,30.02,East,90,0.0,0.0,-999,0.00,,,0.00,,2013-07-06 06:22:00,
2013-07-06 01:34:00,68.0,-99.9,30.02,East,90,0.0,0.0,-999,0.00,,,0.00,,2013-07-06 06:34:00,
2013-07-06 01:43:00,68.0,-99.9,30.03,East,90,0.0,0.0,-999,0.00,,,0.00,,2013-07-06 06:43:00,
2013-07-06 01:53:00,68.0,-99.9,30.02,East,90,0.0,0.0,-999,0.00,,,0.00,,2013-07-06 06:53:00,
2013-07-06 02:02:00,68.0,-99.9,30.02,East,90,0.0,0.0,-999,0.00,,,0.00,,2013-07-06 07:02:00,
2013-07-06 02:12:00,68.0,-99.9,30.02,East,90,0.0,0.0,-999,0.00,,,0.00,,2013-07-06 07:12:00,
2013-07-06 02:33:00,68.0,-99.9,30.02,East,90,0.0,0.0,-999,0.00,,,0.00,,2013-07-06 07:33:00,
2013-07-06 02:44:00,67.0,-99.9,30.02,East,90,0.0,0.0,-999,0.00,,,0.00,,2013-07-06 07:44:00,
2013-07-06 02:52:00,68.0,-99.9,30.02,East,90,0.0,0.0,-999,0.00,,,0.00,,2013-07-06 07:52:00,
2013-07-06 03:02:00,68.0,-99.9,30.02,East,90,0.0,0.0,-999,0.00,,,0.00,,2013-07-06 08:02:00,
2013-07-06 03:12:00,68.0,-99.9,30.02,East,90,0.0,0.0,-999,0.00,,,0.00,,2013-07-06 08:12:00,
2013-07-06 03:22:00,68.0,-99.9,30.03,East,90,0.0,0.0,-999,0.00,,,0.00,,2013-07-06 08:22:00,
2013-07-06 03:34:00,68.0,-99.9,30.03,East,90,0.0,0.0,-999,0.00,,,0.00,,2013-07-06 08:34:00,
2013-07-06 03:43:00,68.0,-99.9,30.03,East,90,0.0,0.0,-999,0.00,,,0.00,,2013-07-06 08:43:00,
2013-07-06 03:54:00,68.0,-99.9,30.03,East,90,0.0,0.0,-999,0.00,,,0.00,,2013-07-06 08:54:00,
2013-07-06 04:02:00,68.0,-99.9,30.02,East,90,0.0,0.0,-999,0.00,,,0.00,,2013-07-06 09:02:00,
2013-07-06 04:11:00,68.0,-99.9,30.02,East,90,0.0,0.0,-999,0.00,,,0.00,,2013-07-06 09:11:00,
2013-07-06 04:34:00,68.0,-99.9,30.02,East,90,0.0,0.0,-999,0.00,,,0.00,,2013-07-06 09:34:00,
2013-07-06 04:43:00,68.0,-99.9,30.02,East,90,0.0,0.0,-999,0.00,,,0.00,,2013-07-06 09:43:00,
2013-07-06 04:53:00,68.0,-99.9,30.02,East,90,0.0,0.0,-999,0.00,,,0.00,,2013-07-06 09:53:00,
2013-07-06 05:02:00,67.0,-99.9,30.02,East,90,0.0,0.0,-999,0.00,,,0.00,,2013-07-06 10:02:00,
2013-07-06 05:12:00,67.0,-99.9,30.02,East,90,0.0,0.0,-999,0.00,,,0.00,,2013-07-06 10:12:00,
2013-07-06 05:22:00,67.0,-99.9,30.03,East,90,0.0,0.0,-999,0.00,,,0.00,,2013-07-06 10:22:00,
2013-07-06 05:33:00,68.0,-99.9,30.03,East,90,0.0,0.0,-999,0.00,,,0.00,,2013-07-06 10:33:00,
2013-07-06 05:43:00,68.0,-99.9,30.03,East,90,0.0,0.0,-999,0.00,,,0.00,,2013-07-06 10:43:00,
2013-07-06 05:53:00,68.0,-99.9,30.03,East,90,0.0,0.0,-999,0.00,,,0.00,,2013-07-06 10:53:00,
2013-07-06 06:01:00,68.0,-99.9,30.03,SW,225,3.0,6.0,-999,0.00,,,0.00,,2013-07-06 11:01:00,
2013-07-06 06:11:00,68.0,-99.9,30.03,SW,225,2.0,6.0,-999,0.00,,,0.00,,2013-07-06 11:11:00,
2013-07-06 06:33:00,69.0,-99.9,30.04,South,180,0.0,0.0,-999,0.00,,,0.00,,2013-07-06 11:33:00,
2013-07-06 06:43:00,69.0,-99.9,30.03,East,90,0.0,3.0,-999,0.00,,,0.00,,2013-07-06 11:43:00,
2013-07-06 06:53:00,69.0,-99.9,30.03,East,90,0.0,0.0,-999,0.00,,,0.00,,2013-07-06 11:53:00,
2013-07-06 07:01:00,70.0,-99.9,30.03,SSE,158,1.0,5.0,-999,0.00,,,0.00,,2013-07-06 12:01:00,
2013-07-06 07:12:00,70.0,-99.9,30.03,South,180,2.0,6.0,-999,0.00,,,0.00,,2013-07-06 12:12:00,
2013-07-06 07:22:00,71.0,-99.9,30.03,SSW,203,3.0,6.0,-999,0.00,,,0.00,,2013-07-06 12:22:00,
2013-07-06 07:33:00,71.0,-99.9,30.03,South,180,2.0,7.0,-999,0.00,,,0.00,,2013-07-06 12:33:00,
2013-07-06 07:43:00,71.0,-99.9,30.03,SSE,158,0.0,3.0,-999,0.00,,,0.00,,2013-07-06 12:43:00,
2013-07-06 07:52:00,72.0,-99.9,30.03,SSE,158,0.0,0.0,-999,0.00,,,0.00,,2013-07-06 12:52:00,
2013-07-06 08:01:00,72.0,-99.9,30.03,SSE,158,0.0,0.0,-999,0.00,,,0.00,,2013-07-06 13:01:00,
2013-07-06 08:12:00,72.0,-99.9,30.03,SW,225,0.0,7.0,-999,0.00,,,0.00,,2013-07-06 13:12:00,
2013-07-06 08:22:00,71.0,-99.9,30.04,SSW,203,5.0,7.0,-999,0.00,,,0.00,,2013-07-06 13:22:00,
2013-07-06 08:33:00,73.0,-99.9,30.04,SSW,203,6.0,7.0,-999,0.00,,,0.00,,2013-07-06 13:33:00,
2013-07-06 08:43:00,73.0,-99.9,30.04,SSW,203,5.0,7.0,-999,0.00,,,0.00,,2013-07-06 13:43:00,
2013-07-06 08:52:00,72.0,-99.9,30.04,SSW,203,6.0,7.0,-999,0.00,,,0.00,,2013-07-06 13:52:00,
2013-07-06 09:02:00,71.0,-99.9,30.04,SW,225,5.0,7.0,-999,0.00,,,0.00,,2013-07-06 14:02:00,
2013-07-06 09:12:00,72.0,-99.9,30.04,SSW,203,3.0,8.0,-999,0.00,,,0.00,,2013-07-06 14:12:00,
2013-07-06 09:22:00,71.0,-99.9,30.04,SSW,203,5.0,8.0,-999,0.00,,,0.00,,2013-07-06 14:22:00,
2013-07-06 09:34:00,71.0,-99.9,30.04,South,180,2.0,8.0,-999,0.00,,,0.00,,2013-07-06 14:34:00,
2013-07-06 09:43:00,73.0,-99.9,30.04,South,180,3.0,6.0,-999,0.00,,,0.00,,2013-07-06 14:43:00,
2013-07-06 09:53:00,73.0,-99.9,30.04,SSW,203,5.0,7.0,-999,0.00,,,0.00,,2013-07-06 14:53:00,
2013-07-06 10:02:00,73.0,-99.9,30.03,South,180,1.0,7.0,-999,0.00,,,0.00,,2013-07-06 15:02:00,
2013-07-06 10:12:00,72.0,-99.9,30.04,South,180,6.0,7.0,-999,0.00,,,0.00,,2013-07-06 15:12:00,
2013-07-06 10:22:00,72.0,-99.9,30.04,South,180,6.0,7.0,-999,0.00,,,0.00,,2013-07-06 15:22:00,
2013-07-06 10:43:00,73.0,-99.9,30.04,SSW,203,5.0,9.0,-999,0.00,,,0.00,,2013-07-06 15:43:00,
2013-07-06 10:53:00,74.0,-99.9,30.04,SSW,203,5.0,7.0,-999,0.00,,,0.00,,2013-07-06 15:53:00,
2013-07-06 11:09:00,74.0,-99.9,30.04,SW,225,5.0,7.0,-999,0.00,,,0.00,,2013-07-06 16:09:00,
2013-07-06 11:16:00,76.0,-99.9,30.04,SW,225,5.0,7.0,-999,0.00,,,0.00,,2013-07-06 16:16:00,
2013-07-06 11:30:00,76.0,-99.9,30.03,South,180,1.0,7.0,-999,0.00,,,0.00,,2013-07-06 16:30:00,
2013-07-06 11:50:00,75.0,-99.9,30.03,SSW,203,3.0,5.0,-999,0.00,,,0.00,,2013-07-06 16:50:00,
2013-07-06 12:02:00,76.0,-99.9,30.03,SW,225,5.0,7.0,-999,0.00,,,0.00,,2013-07-06 17:02:00,
2013-07-06 12:27:00,77.0,-99.9,30.03,WSW,248,6.0,7.0,-999,0.00,,,0.00,,2013-07-06 17:27:00,
2013-07-06 12:37:00,78.0,-99.9,30.03,West,270,0.0,8.0,-999,0.00,,,0.00,,2013-07-06 17:37:00,
2013-07-06 12:46:00,79.0,-99.9,30.03,South,180,3.0,7.0,-999,0.00,,,0.00,,2013-07-06 17:46:00,
2013-07-06 13:01:00,79.0,-99.9,30.03,East,90,0.0,6.0,-999,0.00,,,0.00,,2013-07-06 18:01:00,
2013-07-06 13:10:00,78.0,-99.9,30.03,East,90,0.0,6.0,-999,0.00,,,0.00,,2013-07-06 18:10:00,
2013-07-06 13:16:00,79.0,-99.9,30.03,East,90,0.0,6.0,-999,0.00,,,0.00,,2013-07-06 18:16:00,
2013-07-06 13:28:00,82.0,-99.9,30.02,SSE,158,5.0,7.0,-999,0.00,,,0.00,,2013-07-06 18:28:00,
2013-07-06 13:39:00,82.0,-99.9,30.02,SSE,158,3.0,8.0,-999,0.00,,,0.00,,2013-07-06 18:39:00,
2013-07-06 14:11:00,80.0,-99.9,30.01,South,180,1.0,6.0,-999,0.00,,,0.00,,2013-07-06 19:11:00,
2013-07-06 14:17:00,80.0,-99.9,30.01,South,180,1.0,6.0,-999,0.00,,,0.00,,2013-07-06 19:17:00,
2013-07-06 14:26:00,79.0,-99.9,30.01,SE,135,5.0,8.0,-999,0.00,,,0.00,,2013-07-06 19:26:00,
2013-07-06 14:34:00,79.0,-99.9,30.01,SE,135,5.0,8.0,-999,0.00,,,0.00,,2013-07-06 19:34:00,
2013-07-06 14:50:00,79.0,-99.9,30.01,SE,135,5.0,8.0,-999,0.00,,,0.00,,2013-07-06 19:50:00,
2013-07-06 15:19:00,76.0,-99.9,30.01,SE,135,8.0,15.0,-999,0.00,,,0.00,,2013-07-06 20:19:00,
2013-07-06 15:27:00,75.0,-99.9,30.02,SE,135,10.0,14.0,-999,0.00,,,0.00,,2013-07-06 20:27:00,
2013-07-06 15:53:00,76.0,-99.9,30.01,ESE,113,6.0,10.0,-999,0.00,,,0.00,,2013-07-06 20:53:00,
2013-07-06 16:02:00,76.0,-99.9,30.01,ESE,113,6.0,10.0,-999,0.00,,,0.00,,2013-07-06 21:02:00,
2013-07-06 17:27:00,75.0,-99.9,30.00,ESE,113,0.0,0.0,-999,0.00,,,0.00,,2013-07-06 22:27:00,
2013-07-06 17:50:00,75.0,-99.9,30.00,ESE,113,0.0,0.0,-999,0.00,,,0.00,,2013-07-06 22:50:00,
2013-07-06 18:02:00,75.0,-99.9,29.99,ESE,113,0.0,0.0,-999,0.00,,,0.00,,2013-07-06 23:02:00,
2013-07-06 18:09:00,76.0,-99.9,29.99,ESE,113,0.0,0.0,-999,0.00,,,0.00,,2013-07-06 23:09:00,
2013-07-06 18:15:00,76.0,-99.9,29.99,ESE,113,0.0,0.0,-999,0.00,,,0.00,,2013-07-06 23:15:00,
2013-07-06 19:28:00,74.0,-99.9,29.98,ESE,113,0.0,0.0,-999,0.00,,,0.00,,2013-07-07 00:28:00,
2013-07-06 19:59:00,73.0,-99.9,29.98,ESE,113,0.0,0.0,-999,0.00,,,0.00,,2013-07-07 00:59:00,
2013-07-06 20:17:00,73.0,-99.9,29.98,ESE,113,0.0,0.0,-999,0.00,,,0.00,,2013-07-07 01:17:00,
2013-07-06 20:27:00,73.0,-99.9,29.98,ESE,113,0.0,0.0,-999,0.00,,,0.00,,2013-07-07 01:27:00,
2013-07-06 20:36:00,73.0,-99.9,29.98,ESE,113,0.0,0.0,-999,0.00,,,0.00,,2013-07-07 01:36:00,
2013-07-06 21:56:00,68.0,-99.9,30.00,South,180,0.0,0.0,-999,0.00,,,0.00,,2013-07-07 02:56:00,
2013-07-06 22:03:00,68.0,-99.9,30.00,South,180,0.0,0.0,-999,0.00,,,0.00,,2013-07-07 03:03:00,
2013-07-06 22:58:00,68.0,-99.9,30.00,South,180,0.0,0.0,-999,0.00,,,0.00,,2013-07-07 03:58:00,
2013-07-06 23:01:00,68.0,-99.9,30.00,South,180,0.0,0.0,-999,0.00,,,0.00,,2013-07-07 04:01:00,
2013-07-06 23:11:00,68.0,-99.9,30.00,South,180,0.0,0.0,-999,0.00,,,0.00,,2013-07-07 04:11:00,
2013-07-06 23:21:00,68.0,-99.9,30.00,South,180,0.0,0.0,-999,0.00,,,0.00,,2013-07-07 04:21:00,
2013-07-06 23:42:00,68.0,-99.9,30.00,South,180,0.0,0.0,-999,0.00,,,0.00,,2013-07-07 04:42:00,
2013-07-06 23:52:00,68.0,-99.9,30.00,South,180,0.0,0.0,-999,0.00,,,0.00,,2013-07-07 04:52:00,